• In Netherlands
  • List of Countries
  • For 7 days
  • Water Temperature
  • Satellite Maps
  • Weather Map
  • Weather Widgets
  • user-avatar
    Login

    Hourly Weather Tibissa

    Today, 26 April, Wednesday

    Time Temperature Precipitation Wind Pressure Humidity
    00:00 +15°C° 0 mm 2 mps 682 mmHg 70%
    01:00 +14°C° 0 mm 2 mps 682 mmHg 73%
    02:00 +14°C° 0 mm 2 mps 682 mmHg 71%
    03:00 +14°C° 0 mm 1 mps 682 mmHg 69%
    04:00 +13°C° 0 mm 1 mps 681 mmHg 68%
    05:00 +14°C° 0 mm 1 mps 682 mmHg 63%
    06:00 +15°C° 0 mm 1 mps 682 mmHg 59%
    07:00 +18°C° 0 mm 1 mps 682 mmHg 49%
    08:00 +19°C° 0 mm 2 mps 683 mmHg 42%
    09:00 +21°C° 0 mm 2 mps 683 mmHg 35%
    10:00 +25°C° 0 mm 2 mps 684 mmHg 28%
    11:00 +26°C° 0 mm 3 mps 684 mmHg 26%
    12:00 +27°C° 0 mm 3 mps 684 mmHg 23%
    13:00 +28°C° 0 mm 3 mps 684 mmHg 21%
    14:00 +28°C° 0 mm 3 mps 684 mmHg 21%
    15:00 +28°C° 0 mm 4 mps 683 mmHg 22%
    16:00 +28°C° 0 mm 4 mps 683 mmHg 22%
    17:00 +26°C° 0 mm 4 mps 683 mmHg 27%
    18:00 +25°C° 0 mm 4 mps 682 mmHg 31%
    19:00 +22°C° 0 mm 4 mps 682 mmHg 35%
    20:00 +21°C° 0 mm 3 mps 682 mmHg 39%
    21:00 +20°C° 0 mm 3 mps 683 mmHg 42%
    22:00 +19°C° 0 mm 3 mps 683 mmHg 46%
    23:00 +18°C° 0.2 mm 3 mps 683 mmHg 48%

    Tomorrow, 27 April, Thursday

    Time Temperature Precipitation Wind Pressure Humidity
    00:00 +18°C° 0.2 mm 2 mps 683 mmHg 50%
    01:00 +17°C° 0.2 mm 2 mps 683 mmHg 53%
    02:00 +17°C° 0.3 mm 2 mps 682 mmHg 55%
    03:00 +17°C° 0.3 mm 2 mps 682 mmHg 56%
    04:00 +16°C° 0.3 mm 2 mps 682 mmHg 58%
    05:00 +17°C° 0.2 mm 2 mps 682 mmHg 57%
    06:00 +17°C° 0.2 mm 2 mps 682 mmHg 56%
    07:00 +18°C° 0.2 mm 2 mps 682 mmHg 55%
    08:00 +20°C° 0 mm 4 mps 682 mmHg 47%
    09:00 +23°C° 0 mm 5 mps 683 mmHg 38%
    10:00 +26°C° 0 mm 7 mps 684 mmHg 29%
    11:00 +27°C° 0 mm 7 mps 684 mmHg 26%
    12:00 +28°C° 0 mm 8 mps 684 mmHg 24%
    13:00 +29°C° 0 mm 9 mps 684 mmHg 21%
    14:00 +29°C° 0 mm 9 mps 683 mmHg 21%
    15:00 +29°C° 0 mm 9 mps 683 mmHg 21%
    16:00 +29°C° 0 mm 8 mps 683 mmHg 21%
    17:00 +27°C° 0 mm 7 mps 682 mmHg 26%
    18:00 +24°C° 0 mm 6 mps 682 mmHg 30%
    19:00 +23°C° 0 mm 4 mps 682 mmHg 34%
    20:00 +22°C° 0 mm 4 mps 682 mmHg 37%
    21:00 +21°C° 0 mm 4 mps 682 mmHg 41%
    22:00 +19°C° 0 mm 4 mps 682 mmHg 44%
    23:00 +18°C° 0 mm 4 mps 682 mmHg 49%

    Day after tomorrow, 28 April, Friday

    Time Temperature Precipitation Wind Pressure Humidity
    00:00 +17°C° 0 mm 4 mps 682 mmHg 55%
    01:00 +16°C° 0 mm 3 mps 682 mmHg 60%
    02:00 +14°C° 0 mm 3 mps 682 mmHg 66%
    03:00 +14°C° 0 mm 2 mps 682 mmHg 73%
    04:00 +13°C° 0 mm 2 mps 681 mmHg 79%
    05:00 +14°C° 0 mm 2 mps 681 mmHg 78%
    06:00 +14°C° 0 mm 2 mps 682 mmHg 77%
    07:00 +14°C° 0 mm 2 mps 682 mmHg 76%
    08:00 +16°C° 0 mm 3 mps 682 mmHg 67%
    09:00 +18°C° 0 mm 3 mps 683 mmHg 57%
    10:00 +20°C° 0 mm 3 mps 684 mmHg 47%
    11:00 +22°C° 0 mm 3 mps 684 mmHg 43%
    12:00 +23°C° 0 mm 4 mps 684 mmHg 39%
    13:00 +25°C° 0 mm 4 mps 684 mmHg 35%
    14:00 +25°C° 0 mm 4 mps 684 mmHg 36%
    15:00 +25°C° 0 mm 5 mps 683 mmHg 37%
    16:00 +25°C° 0 mm 5 mps 683 mmHg 38%
    17:00 +22°C° 0.1 mm 5 mps 683 mmHg 46%
    18:00 +20°C° 0.1 mm 5 mps 682 mmHg 55%
    19:00 +17°C° 0.1 mm 5 mps 682 mmHg 64%
    20:00 +15°C° 0.1 mm 5 mps 683 mmHg 69%
    21:00 +14°C° 0.1 mm 5 mps 683 mmHg 75%
    22:00 +13°C° 0.1 mm 4 mps 683 mmHg 81%
    23:00 +12°C° 0 mm 4 mps 683 mmHg 82%

    29 April, Saturday

    Time Temperature Precipitation Wind Pressure Humidity
    00:00 +12°C° 0 mm 4 mps 683 mmHg 83%
    01:00 +11°C° 0 mm 3 mps 682 mmHg 84%
    02:00 +11°C° 0.1 mm 3 mps 682 mmHg 85%
    03:00 +11°C° 0.1 mm 3 mps 682 mmHg 85%
    04:00 +10°C° 0.1 mm 2 mps 681 mmHg 85%
    05:00 +12°C° 0.1 mm 2 mps 681 mmHg 83%
    06:00 +12°C° 0.1 mm 2 mps 681 mmHg 80%
    07:00 +13°C° 0.1 mm 2 mps 681 mmHg 78%
    08:00 +14°C° 0.2 mm 2 mps 682 mmHg 71%
    09:00 +16°C° 0.2 mm 1 mps 683 mmHg 64%
    10:00 +19°C° 0.2 mm 1 mps 683 mmHg 57%
    11:00 +19°C° 0.1 mm 2 mps 683 mmHg 53%
    12:00 +20°C° 0.1 mm 2 mps 683 mmHg 49%
    13:00 +21°C° 0.1 mm 2 mps 683 mmHg 46%
    14:00 +21°C° 0.7 mm 3 mps 683 mmHg 48%
    15:00 +21°C° 0.7 mm 3 mps 683 mmHg 51%
    16:00 +20°C° 0.7 mm 3 mps 682 mmHg 53%
    17:00 +19°C° 0.4 mm 3 mps 682 mmHg 58%
    18:00 +18°C° 0.4 mm 2 mps 682 mmHg 63%
    19:00 +17°C° 0.4 mm 2 mps 682 mmHg 68%
    20:00 +16°C° 0.3 mm 2 mps 683 mmHg 72%
    21:00 +15°C° 0.3 mm 2 mps 683 mmHg 77%
    22:00 +14°C° 0.3 mm 1 mps 683 mmHg 81%
    23:00 +14°C° 0.1 mm 1 mps 683 mmHg 82%

    30 April, Sunday

    Time Temperature Precipitation Wind Pressure Humidity
    00:00 +13°C° 0.1 mm 1 mps 682 mmHg 82%
    01:00 +13°C° 0.1 mm 1 mps 682 mmHg 83%
    02:00 +13°C° 0 mm 1 mps 682 mmHg 84%
    03:00 +12°C° 0 mm 1 mps 682 mmHg 84%
    04:00 +12°C° 0 mm 1 mps 682 mmHg 84%
    05:00 +13°C° 0.1 mm 1 mps 682 mmHg 81%
    06:00 +14°C° 0.1 mm 1 mps 683 mmHg 77%
    07:00 +14°C° 0.1 mm 1 mps 683 mmHg 74%
    08:00 +16°C° 0 mm 1 mps 684 mmHg 65%
    09:00 +18°C° 0 mm 2 mps 684 mmHg 57%
    10:00 +20°C° 0 mm 2 mps 684 mmHg 49%
    11:00 +23°C° 0 mm 2 mps 684 mmHg 43%
    12:00 +25°C° 0 mm 2 mps 684 mmHg 38%
    13:00 +26°C° 0 mm 3 mps 684 mmHg 32%
    14:00 +26°C° 0.1 mm 3 mps 684 mmHg 34%
    15:00 +26°C° 0.1 mm 3 mps 683 mmHg 35%
    16:00 +25°C° 0.1 mm 2 mps 683 mmHg 37%
    17:00 +24°C° 0.6 mm 2 mps 683 mmHg 44%
    18:00 +21°C° 0.6 mm 2 mps 683 mmHg 51%
    19:00 +20°C° 0.6 mm 2 mps 683 mmHg 58%
    20:00 +19°C° 0.1 mm 2 mps 683 mmHg 62%
    21:00 +17°C° 0.1 mm 2 mps 683 mmHg 66%
    22:00 +16°C° 0.1 mm 2 mps 683 mmHg 70%
    23:00 +16°C° 0 mm 2 mps 683 mmHg 73%

    1 May, Monday

    Time Temperature Precipitation Wind Pressure Humidity
    00:00 +15°C° 0 mm 2 mps 683 mmHg 76%
    01:00 +14°C° 0 mm 2 mps 682 mmHg 79%
    02:00 +14°C° 0 mm 2 mps 682 mmHg 80%
    03:00 +13°C° 0 mm 2 mps 682 mmHg 81%
    04:00 +13°C° 0 mm 1 mps 682 mmHg 82%
    05:00 +14°C° 0 mm 1 mps 683 mmHg 77%
    06:00 +15°C° 0 mm 1 mps 683 mmHg 72%
    07:00 +16°C° 0 mm 1 mps 684 mmHg 67%
    08:00 +19°C° 0 mm 1 mps 685 mmHg 61%
    09:00 +19°C° 0 mm 2 mps 685 mmHg 54%
    10:00 +21°C° 0 mm 2 mps 686 mmHg 48%
    11:00 +23°C° 0 mm 2 mps 686 mmHg 44%
    12:00 +24°C° 0 mm 2 mps 686 mmHg 40%
    13:00 +26°C° 0 mm 2 mps 686 mmHg 36%
    14:00 +25°C° 0.6 mm 3 mps 686 mmHg 38%
    15:00 +25°C° 0.6 mm 3 mps 686 mmHg 40%
    16:00 +25°C° 0.6 mm 4 mps 686 mmHg 42%
    17:00 +22°C° 0.6 mm 4 mps 686 mmHg 50%
    18:00 +20°C° 0.6 mm 4 mps 686 mmHg 57%
    19:00 +19°C° 0.6 mm 4 mps 686 mmHg 65%
    20:00 +18°C° 0.2 mm 4 mps 686 mmHg 69%
    21:00 +17°C° 0.2 mm 4 mps 687 mmHg 73%
    22:00 +15°C° 0.2 mm 4 mps 687 mmHg 76%
    23:00 +14°C° 0 mm 3 mps 687 mmHg 80%
    Show more